AAL442 KJFK-EHAM

Flight info

Callsign AAL442
Flight time N/A
Altitude 32000
Route BETTE DCT ACK DCT BRADD N427A ELSIR/M084F360 NATW XETBO/N0483F370 DCT DAP DCT LIFFY UL975 WAL M16 DOLAS L603 LAMSO
Aircraft B77W/H-SDE1E2E3FGHIJ2J3J4J5M1RWXY/LB1D1

Departure

Time 2026-05-09 04:14
Airport John F. Kennedy International Airport (KJFK)

Arrival

Time N/A
Airport Amsterdam Airport Schiphol (EHAM)
Time Latitude Longitude Altitude Speed Heading
2026-05-09 03:34 40.63671 -73.78178 25 ft 0 kts 83°
2026-05-09 03:59 40.63671 -73.78179 25 ft 4 kts 79°
2026-05-09 04:00 40.63666 -73.78213 30 ft 4 kts 81°
2026-05-09 04:00 40.63665 -73.78236 31 ft 3 kts 117°
2026-05-09 04:00 40.63676 -73.78259 31 ft 4 kts 147°
2026-05-09 04:00 40.63697 -73.78268 31 ft 4 kts 175°
2026-05-09 04:01 40.63715 -73.78270 31 ft 0 kts 173°
2026-05-09 04:04 40.63709 -73.78269 30 ft 4 kts 173°
2026-05-09 04:04 40.63679 -73.78264 31 ft 0 kts 173°
2026-05-09 04:04 40.63674 -73.78263 31 ft 3 kts 173°
2026-05-09 04:05 40.63635 -73.78257 30 ft 9 kts 173°
2026-05-09 04:05 40.63593 -73.78257 31 ft 9 kts 185°
2026-05-09 04:05 40.63514 -73.78258 29 ft 9 kts 145°
2026-05-09 04:05 40.63487 -73.78213 30 ft 9 kts 122°
2026-05-09 04:06 40.63454 -73.78141 31 ft 9 kts 121°
2026-05-09 04:06 40.63422 -73.78071 31 ft 9 kts 121°
2026-05-09 04:06 40.63389 -73.77998 31 ft 9 kts 120°
2026-05-09 04:06 40.63357 -73.77925 31 ft 9 kts 119°
2026-05-09 04:07 40.63326 -73.77851 27 ft 9 kts 119°
2026-05-09 04:07 40.63295 -73.77778 28 ft 10 kts 119°
2026-05-09 04:07 40.63252 -73.77675 28 ft 13 kts 119°
2026-05-09 04:07 40.63205 -73.77569 27 ft 13 kts 121°
2026-05-09 04:08 40.63157 -73.77464 26 ft 13 kts 121°
2026-05-09 04:08 40.63108 -73.77359 31 ft 13 kts 121°
2026-05-09 04:08 40.63059 -73.77254 32 ft 13 kts 121°
2026-05-09 04:08 40.63011 -73.77151 30 ft 12 kts 121°
2026-05-09 04:09 40.62983 -73.77090 28 ft 2 kts 122°
2026-05-09 04:09 40.62977 -73.77082 28 ft 1 kts 139°
2026-05-09 04:09 40.62967 -73.77081 30 ft 2 kts 179°
2026-05-09 04:09 40.62956 -73.77085 28 ft 2 kts 197°
2026-05-09 04:10 40.62945 -73.77090 27 ft 2 kts 197°
2026-05-09 04:10 40.62934 -73.77095 30 ft 2 kts 198°
2026-05-09 04:10 40.62927 -73.77098 29 ft 0 kts 201°
2026-05-09 04:12 40.62916 -73.77104 32 ft 2 kts 201°
2026-05-09 04:12 40.62902 -73.77112 30 ft 2 kts 206°
2026-05-09 04:12 40.62875 -73.77131 26 ft 10 kts 209°
2026-05-09 04:13 40.62834 -73.77208 27 ft 11 kts 262°
2026-05-09 04:13 40.62861 -73.77320 27 ft 22 kts 295°
2026-05-09 04:13 40.63080 -73.77841 29 ft 111 kts 300°
2026-05-09 04:13 40.63618 -73.79069 32 ft 197 kts 297°
2026-05-09 04:14 40.64298 -73.80772 760 ft 217 kts 297°
2026-05-09 04:14 40.65036 -73.82542 1964 ft 219 kts 298°
2026-05-09 04:14 40.65743 -73.84321 2600 ft 224 kts 292°
2026-05-09 04:14 40.66193 -73.86342 3022 ft 235 kts 274°
2026-05-09 04:15 40.65899 -73.88445 3459 ft 243 kts 238°
2026-05-09 04:15 40.64651 -73.90013 3846 ft 254 kts 206°
2026-05-09 04:15 40.62944 -73.90509 4557 ft 255 kts 175°
2026-05-09 04:15 40.61237 -73.89879 5241 ft 257 kts 156°
2026-05-09 04:16 40.59623 -73.88824 5787 ft 264 kts 158°
2026-05-09 04:16 40.57841 -73.88178 6338 ft 267 kts 170°
2026-05-09 04:16 40.56001 -73.87808 7021 ft 270 kts 171°
2026-05-09 04:16 40.54124 -73.87253 7439 ft 284 kts 162°
2026-05-09 04:17 40.52240 -73.86436 8140 ft 283 kts 164°
2026-05-09 04:17 40.50339 -73.85712 8817 ft 285 kts 164°
2026-05-09 04:17 40.48440 -73.84979 9579 ft 285 kts 163°
2026-05-09 04:17 40.46666 -73.83825 10071 ft 291 kts 138°
2026-05-09 04:18 40.45445 -73.81641 10334 ft 309 kts 111°
2026-05-09 04:18 40.45042 -73.78796 10510 ft 330 kts 88°
2026-05-09 04:18 40.45541 -73.75763 10685 ft 352 kts 66°
2026-05-09 04:18 40.46900 -73.73001 10931 ft 370 kts 45°
2026-05-09 04:19 40.49014 -73.71031 11448 ft 380 kts 22°
2026-05-09 04:19 40.51601 -73.70280 12078 ft 385 kts
2026-05-09 04:19 40.54278 -73.70487 12823 ft 388 kts 352°
2026-05-09 04:19 40.56960 -73.70996 13580 ft 391 kts 351°
2026-05-09 04:20 40.59666 -73.71532 14290 ft 395 kts 352°
2026-05-09 04:20 40.62409 -73.72009 14976 ft 399 kts 353°
2026-05-09 04:20 40.65186 -73.72418 15648 ft 404 kts 354°
2026-05-09 04:20 40.67994 -73.72778 16310 ft 408 kts 354°
2026-05-09 04:21 40.70832 -73.73113 16950 ft 411 kts 354°
2026-05-09 04:21 40.73695 -73.73439 17591 ft 415 kts 355°
2026-05-09 04:21 40.79513 -73.74098 18810 ft 423 kts 355°
2026-05-09 04:22 40.82455 -73.74434 19393 ft 427 kts 355°
2026-05-09 04:22 40.85423 -73.74775 19970 ft 430 kts 355°
2026-05-09 04:22 40.88371 -73.74815 20367 ft 433 kts
2026-05-09 04:22 40.91244 -73.73559 20768 ft 439 kts 29°
2026-05-09 04:23 40.93702 -73.71089 21327 ft 442 kts 47°
2026-05-09 04:23 40.95469 -73.67836 21875 ft 443 kts 64°
2026-05-09 04:23 40.96451 -73.63976 22369 ft 446 kts 81°
2026-05-09 04:23 40.96520 -73.59825 22826 ft 449 kts 99°
2026-05-09 04:24 40.95683 -73.55839 23263 ft 452 kts 114°
2026-05-09 04:24 40.94112 -73.52257 23733 ft 454 kts 129°
2026-05-09 04:24 40.92009 -73.49200 24145 ft 456 kts 135°
2026-05-09 04:24 40.89726 -73.46194 24568 ft 460 kts 136°
2026-05-09 04:25 40.87418 -73.43225 25000 ft 463 kts 136°
2026-05-09 04:25 40.85143 -73.40282 25426 ft 466 kts 135°
2026-05-09 04:25 40.82839 -73.37257 25845 ft 468 kts 135°
2026-05-09 04:25 40.80508 -73.34156 26237 ft 471 kts 135°
2026-05-09 04:26 40.78200 -73.31059 26624 ft 474 kts 135°
2026-05-09 04:26 40.75889 -73.27949 26987 ft 477 kts 135°
2026-05-09 04:26 40.73563 -73.24819 27342 ft 479 kts 135°
2026-05-09 04:26 40.71220 -73.21672 27689 ft 482 kts 135°
2026-05-09 04:27 40.68893 -73.18551 28029 ft 484 kts 135°
2026-05-09 04:27 40.66525 -73.15381 28345 ft 487 kts 135°
2026-05-09 04:27 40.64145 -73.12197 28658 ft 489 kts 135°
2026-05-09 04:27 40.61753 -73.09003 28943 ft 491 kts 135°
2026-05-09 04:28 40.59520 -73.05606 29107 ft 493 kts 123°
2026-05-09 04:28 40.58082 -73.01509 29252 ft 497 kts 104°
2026-05-09 04:28 40.57607 -72.97008 29514 ft 499 kts 90°
2026-05-09 04:28 40.57956 -72.92481 29791 ft 500 kts 76°
2026-05-09 04:29 40.58998 -72.88137 29999 ft 500 kts 71°
2026-05-09 04:29 40.60159 -72.83815 30232 ft 501 kts 70°
2026-05-09 04:29 40.61336 -72.79499 30577 ft 500 kts 70°
2026-05-09 04:29 40.62497 -72.75198 30955 ft 498 kts 71°
2026-05-09 04:30 40.63636 -72.70898 31286 ft 497 kts 71°
2026-05-09 04:30 40.64752 -72.66605 31591 ft 496 kts 71°
2026-05-09 04:30 40.65856 -72.62293 31867 ft 496 kts 71°
2026-05-09 04:31 40.68049 -72.53629 31980 ft 500 kts 72°
2026-05-09 04:31 40.70229 -72.44967 31989 ft 495 kts 72°
2026-05-09 04:32 40.72389 -72.36367 32003 ft 494 kts 72°
2026-05-09 04:32 40.74543 -72.27770 32002 ft 494 kts 72°
2026-05-09 04:33 40.76692 -72.19164 32003 ft 494 kts 72°
2026-05-09 04:33 40.78838 -72.10539 32003 ft 495 kts 72°
2026-05-09 04:34 40.80979 -72.01899 32002 ft 496 kts 72°
2026-05-09 04:34 40.83119 -71.93235 32002 ft 496 kts 72°
2026-05-09 04:35 40.85239 -71.84619 32001 ft 497 kts 72°
2026-05-09 04:35 40.87366 -71.75941 32001 ft 497 kts 72°
2026-05-09 04:36 40.89488 -71.67256 32001 ft 497 kts 72°
2026-05-09 04:36 40.91604 -71.58560 32001 ft 496 kts 72°
2026-05-09 04:37 40.93709 -71.49875 32001 ft 496 kts 72°
2026-05-09 04:37 40.95809 -71.41182 32001 ft 496 kts 72°
2026-05-09 04:38 40.97900 -71.32490 32001 ft 496 kts 72°
2026-05-09 04:38 40.99986 -71.23789 32001 ft 496 kts 72°
2026-05-09 04:39 41.02063 -71.15093 32001 ft 496 kts 72°
2026-05-09 04:39 41.04134 -71.06387 32001 ft 496 kts 72°
2026-05-09 04:40 41.06201 -70.97666 32001 ft 496 kts 72°
2026-05-09 04:40 41.08258 -70.88954 32001 ft 496 kts 73°
2026-05-09 04:41 41.10312 -70.80223 32001 ft 496 kts 73°
2026-05-09 04:41 41.12358 -70.71491 32001 ft 496 kts 73°
2026-05-09 04:42 41.14398 -70.62748 32001 ft 496 kts 73°
2026-05-09 04:42 41.16432 -70.54000 32001 ft 496 kts 73°
2026-05-09 04:43 41.18458 -70.45251 32001 ft 496 kts 73°
2026-05-09 04:43 41.20479 -70.36491 32001 ft 496 kts 73°
2026-05-09 04:44 41.22493 -70.27727 32001 ft 496 kts 73°
2026-05-09 04:44 41.24486 -70.19021 32001 ft 496 kts 73°
2026-05-09 04:45 41.26489 -70.10245 32001 ft 496 kts 73°
2026-05-09 04:45 41.29257 -70.01886 32009 ft 496 kts 59°
2026-05-09 04:46 41.33325 -69.94495 32009 ft 495 kts 49°
2026-05-09 04:46 41.37869 -69.87584 32000 ft 496 kts 49°
2026-05-09 04:47 41.42411 -69.80674 32002 ft 496 kts 49°
2026-05-09 04:47 41.46922 -69.73711 32001 ft 497 kts 49°
2026-05-09 04:48 41.51421 -69.66704 32001 ft 497 kts 49°
2026-05-09 04:48 41.55906 -69.59694 32001 ft 497 kts 50°
2026-05-09 04:49 41.60389 -69.52675 32001 ft 497 kts 50°
2026-05-09 04:49 41.64872 -69.45642 32001 ft 497 kts 50°
2026-05-09 04:50 41.69347 -69.38606 32001 ft 496 kts 50°
2026-05-09 04:50 41.73818 -69.31560 32001 ft 496 kts 50°
2026-05-09 04:51 41.78251 -69.24558 32001 ft 496 kts 50°
2026-05-09 04:51 41.82711 -69.17494 32001 ft 496 kts 50°
2026-05-09 04:52 41.86444 -69.11571 32001 ft 496 kts 50°
2026-05-09 04:52 41.90892 -69.04497 32001 ft 496 kts 50°
2026-05-09 04:53 41.95342 -68.97404 32001 ft 496 kts 50°
2026-05-09 04:53 41.99782 -68.90309 32001 ft 496 kts 50°
2026-05-09 04:54 42.04223 -68.83195 32001 ft 496 kts 50°
2026-05-09 04:54 42.08629 -68.76121 32001 ft 496 kts 50°
2026-05-09 04:55 42.13091 -68.68941 32001 ft 496 kts 50°
2026-05-09 04:55 42.17487 -68.61848 32001 ft 496 kts 50°
2026-05-09 04:56 42.21906 -68.54703 32001 ft 496 kts 50°
2026-05-09 04:56 42.26324 -68.47540 32001 ft 496 kts 50°
2026-05-09 04:57 42.30740 -68.40366 32001 ft 496 kts 50°
2026-05-09 04:57 42.35149 -68.33184 32001 ft 496 kts 50°
2026-05-09 04:58 42.39555 -68.25991 32001 ft 496 kts 50°
2026-05-09 04:58 42.43953 -68.18791 32001 ft 496 kts 50°
2026-05-09 04:59 42.48352 -68.11574 32001 ft 496 kts 50°
2026-05-09 04:59 42.52739 -68.04359 32001 ft 496 kts 50°
2026-05-09 05:00 42.57129 -67.97121 32001 ft 496 kts 51°
2026-05-09 05:00 42.61509 -67.89880 32001 ft 496 kts 51°
2026-05-09 05:01 42.64268 -67.85312 32001 ft 496 kts 51°
2026-05-09 05:01 42.66622 -67.81407 32001 ft 496 kts 51°
2026-05-09 05:02 42.68292 -67.78635 32001 ft 496 kts 51°
2026-05-09 05:02 42.72932 -67.70912 33039 ft 502 kts 45°
2026-05-09 05:02 42.75176 -67.67181 32747 ft 516 kts 44°
2026-05-09 05:03 42.76727 -67.64608 32140 ft 525 kts 46°
2026-05-09 05:03 42.79828 -67.59447 32033 ft 538 kts 52°
2026-05-09 05:03 42.82207 -67.55455 32028 ft 547 kts 52°
2026-05-09 05:04 42.86241 -67.48669 32024 ft 561 kts 52°
2026-05-09 05:04 42.91217 -67.40297 32015 ft 573 kts 52°
2026-05-09 05:05 42.96231 -67.31852 32003 ft 572 kts 52°
2026-05-09 05:05 43.01221 -67.23422 31995 ft 570 kts 52°
2026-05-09 05:06 43.06186 -67.15005 31997 ft 568 kts 52°
2026-05-09 05:06 43.11132 -67.06595 31989 ft 567 kts 52°
2026-05-09 05:07 43.16058 -66.98180 31995 ft 566 kts 53°
2026-05-09 05:07 43.20804 -66.89584 31990 ft 565 kts 55°
2026-05-09 05:08 43.25446 -66.80898 31996 ft 565 kts 55°
2026-05-09 05:08 43.30101 -66.72204 31989 ft 565 kts 55°
2026-05-09 05:09 43.34784 -66.63512 31975 ft 566 kts 55°
2026-05-09 05:09 43.39436 -66.54881 31988 ft 566 kts 55°
2026-05-09 05:10 43.44117 -66.46169 31976 ft 566 kts 55°
2026-05-09 05:10 43.48814 -66.37392 31968 ft 566 kts 55°
2026-05-09 05:11 43.53437 -66.28726 31980 ft 565 kts 55°
2026-05-09 05:11 43.58087 -66.19984 31967 ft 565 kts 56°
2026-05-09 05:12 43.62725 -66.11237 31975 ft 565 kts 56°
2026-05-09 05:12 43.67356 -66.02480 31965 ft 564 kts 56°
2026-05-09 05:13 43.71975 -65.93717 31978 ft 564 kts 56°
2026-05-09 05:13 43.76591 -65.84934 31967 ft 564 kts 56°
2026-05-09 05:14 43.81198 -65.76142 31969 ft 564 kts 56°
2026-05-09 05:14 43.85796 -65.67341 31957 ft 564 kts 56°
2026-05-09 05:15 43.90391 -65.58519 31959 ft 565 kts 56°
2026-05-09 05:15 43.94985 -65.49674 31950 ft 565 kts 56°
2026-05-09 05:16 43.99574 -65.40810 31958 ft 565 kts 56°
2026-05-09 05:16 44.04158 -65.31930 31946 ft 566 kts 56°
2026-05-09 05:17 44.08736 -65.23032 31950 ft 566 kts 57°
2026-05-09 05:17 44.13289 -65.14157 31943 ft 567 kts 57°
2026-05-09 05:18 44.17868 -65.05205 31948 ft 568 kts 57°
2026-05-09 05:18 44.22447 -64.96224 31936 ft 569 kts 57°
2026-05-09 05:19 44.27029 -64.87208 31937 ft 570 kts 57°
2026-05-09 05:19 44.31608 -64.78173 31926 ft 571 kts 58°
2026-05-09 05:20 44.36190 -64.69100 31917 ft 571 kts 58°
2026-05-09 05:20 44.40763 -64.60020 31913 ft 572 kts 58°
2026-05-09 05:21 44.45336 -64.50910 31913 ft 572 kts 58°
2026-05-09 05:21 44.49907 -64.41776 31897 ft 572 kts 58°
2026-05-09 05:22 44.54465 -64.32637 31905 ft 572 kts 58°
2026-05-09 05:22 44.59013 -64.23491 31897 ft 572 kts 59°
2026-05-09 05:23 44.62025 -64.17418 31904 ft 571 kts 58°